Location: Caltech
(34.1382°N, 118.1253°W)
Time: 04:13:30
(UTC-07:00)

Meteor 2-4 Rocket - Visible Passes

Search period start: 20 April 2014 00:00
Search period end: 30 April 2014 00:00
Orbit: 800 x 909 km, 81.2° (Epoch: 19 April)

Date Brightness Start Highest point End Pass type
(mag) Time Alt. Az. Time Alt. Az. Time Alt. Az.
20 Apr 6.1 01:25:19 19° N 01:25:19 19° N 01:26:51 10° N visible
21 Apr 6.1 01:14:26 19° N 01:14:26 19° N 01:15:59 10° N visible
22 Apr 6.1 01:03:33 19° NNE 01:03:33 19° NNE 01:05:07 10° N visible
23 Apr 6.1 00:52:39 19° NNE 00:52:39 19° NNE 00:54:14 10° NNE visible
24 Apr 6.1 00:41:45 19° NNE 00:41:45 19° NNE 00:43:21 10° NNE visible
24 Apr 6.4 02:23:49 10° NW 02:23:49 10° NW 02:23:55 10° NW visible
25 Apr 6.0 00:30:49 20° NNE 00:30:49 20° NNE 00:32:28 10° NNE visible
25 Apr 6.3 02:12:54 11° NW 02:12:54 11° NW 02:13:19 10° NW visible
26 Apr 6.0 00:19:53 20° NNE 00:19:53 20° NNE 00:21:35 10° NNE visible
26 Apr 6.3 02:01:58 12° NW 02:01:58 12° NW 02:02:40 10° NNW visible
27 Apr 6.0 00:08:56 20° NNE 00:08:56 20° NNE 00:10:41 10° NNE visible
27 Apr 6.3 01:51:01 13° NW 01:51:01 13° NW 01:52:00 10° NNW visible
27 Apr 5.9 23:57:58 20° NNE 23:57:58 20° NNE 23:59:47 10° NNE visible
28 Apr 6.2 01:40:03 14° NW 01:40:03 14° NW 01:41:19 10° NNW visible
28 Apr 5.8 23:46:59 21° NNE 23:46:59 21° NNE 23:48:52 10° NNE visible
29 Apr 6.2 01:29:04 15° NW 01:29:04 15° NW 01:30:36 10° NNW visible
29 Apr 5.8 23:36:00 21° NNE 23:36:00 21° NNE 23:37:58 10° NNE visible
